Regional Weather Roundup
Issued by NWS Sioux Falls, SD

Home | Current Version | Previous Version | Text Only | Print | Product List | Glossary Off
Versions: 1 2 3 4 5 6 7 8 9 10 11 12 13 14 15 16 17 18 19 20 21 22 23 24 25 26 27 28 29 30 31 32 33 34 35 36 37 38 39 40 41 42 43 44 45 46 47 48 49 50

755
ASUS43 KFSD 281402
RWRFSD

WEATHER ROUNDUP FOR SE SOUTH DAKOTA/SW MINNESOTA/NW IOWA
NATIONAL WEATHER SERVICE SIOUX FALLS SD
900 AM CDT SUN AUG 28 2016

NOTE: "FAIR" INDICATES FEW OR NO CLOUDS BELOW 12,000 FEET WITH NO
SIGNIFICANT WEATHER AND OR OBSTRUCTIONS TO VISIBILITY.


SDZ038>040-050-052>070-281500-
SOUTHEAST SOUTH DAKOTA

CITY           SKY/WX    TMP DP  RH WIND       PRES   REMARKS
BROOKINGS      MOSUNNY   68  65  90 SE15      30.07S
CHAMBERLAIN    SUNNY     76  69  78 S10       29.98S
HURON          SUNNY     71  66  84 SE13G20   29.99S
MADISON        FAIR      66  66 100 S14       30.08R
MITCHELL       SUNNY     71  66  84 SE15G22   30.02R
SIOUX FALLS    MOSUNNY   70  67  90 SE7       30.08S
WINNER         FAIR      74  66  76 SW16G25   29.97S
YANKTON        SUNNY     72  66  83 SE7       30.04S
$$

MNZ071-072-080-081-089-090-097-098-281500-
SOUTHWEST MINNESOTA

CITY           SKY/WX    TMP DP  RH WIND       PRES   REMARKS
FAIRMONT       SUNNY     68  66  93 S6        30.14R
JACKSON          N/A     70  64  83 S8        30.14R
LUVERNE        PTSUNNY   68  64  88 S6        30.11S
MARSHALL       SUNNY     67  64  90 SE12      30.10F
MONTEVIDEO     CLOUDY    63  63 100 E10       30.13R THUNDER
REDWOOD FALLS  MOSUNNY   68  64  87 SE7       30.12F
TRACY          CLOUDY    65  64  97 SE7       30.13S FOG
WINDOM         SUNNY     72  66  83 CALM      30.14R
WORTHINGTON    MOSUNNY   68  66  93 S7        30.13S
$$

IAZ001>003-012>014-020>022-031-032-NEZ013-014-SDZ071-281500-
NORTHWEST IOWA

CITY           SKY/WX    TMP DP  RH WIND       PRES   REMARKS
CHEROKEE       MOSUNNY   69  69  99 S5        30.12S
DENISON        FOG       72  70  94 CALM      30.10S VSB<1/4
ESTHERVILLE    FOG       65  65 100 S6        30.14R VSB 1/4
LE MARS        SUNNY     72  68  88 S8        30.10S
ORANGE CITY    SUNNY     72  66  83 S6        30.11R
SHELDON        SUNNY     70  70 100 SE9       30.10S
SIOUX CITY     MOSUNNY   70  66  87 SE9       30.08S
SPENCER        PTSUNNY   68  66  93 SE8       30.13S FOG
STORM LAKE     CLOUDY    70  68  94 SE9       30.13S
$$

ABBREVIATIONS USED IN REMARKS
   TC - TEMPERATURE IN CELSIUS
  WCI - WIND CHILL INDEX
   HX - HEAT INDEX
  VSB - VISIBILITY





USA.gov is the U.S. government's official web portal to all federal, state and local government web resources and services.